CW2098 Weather Reports


time (UTC)temp
F
wind
direction
speed
knots
gust
knots
rain 1hr
in
rain 24hr
in
rain mn
in
humidity
%
barometer
mb
20260906130235 82 207 1.7 5.2 0.00 0.00 0.00 87 1003.1
20260906125713 81 208 1.7 3.5 0.00 0.00 0.00 88 1001.3
20260906124233 81 209 0.9 2.6 0.00 0.00 0.00 89 999.2
20260906123717 80 201 0.9 2.6 0.00 0.00 0.00 90 999.7
20260906122233 79 244 1.7 3.5 0.00 0.00 0.00 91 998.6
20260906121717 79 220 1.7 2.6 0.00 0.00 0.00 91 997.3
20260906120716 79 261 0.9 1.7 0.00 0.00 0.00 92 997.1
20260906115233 79 43 0.0 1.7 0.00 0.00 0.00 91 996.7
20260906114233 79 0 0.0 0.9 0.00 0.00 0.00 91 996.5
20260906113233 79 0 0.9 1.7 0.00 0.00 0.00 91 996.4
20260906112221 79 192 0.9 3.5 0.00 0.00 0.00 91 996.5
20260906111205 79 166 0.9 3.5 0.00 0.00 0.00 91 996.2
20260906110205 79 189 1.7 3.5 0.00 0.00 0.00 91 996.0
20260906105206 79 202 0.9 3.5 0.00 0.00 0.00 90 995.8
20260906104206 79 221 0.9 3.5 0.00 0.00 0.00 90 995.7
20260906103206 79 226 1.7 5.2 0.00 0.00 0.00 90 995.8
20260906102204 79 203 0.9 5.2 0.00 0.00 0.00 90 995.8
20260906101201 79 211 1.7 5.2 0.00 0.00 0.00 90 995.9
20260906100636 80 189 1.7 4.3 0.00 0.00 0.00 90 995.7
20260906095224 80 0 0.9 3.5 0.00 0.00 0.00 90 995.7
20260906094154 80 0 0.9 2.6 0.00 0.00 0.00 90 995.6
20260906093155 80 216 1.7 4.3 0.00 0.00 0.00 90 995.7
20260906092207 80 203 1.7 5.2 0.00 0.00 0.00 90 995.7
20260906091154 80 209 0.0 3.5 0.00 0.00 0.00 89 995.5
20260906090155 80 0 0.9 4.3 0.00 0.00 0.00 89 996.0
20260906085152 80 202 0.9 3.5 0.00 0.00 0.00 89 996.4
20260906084152 80 21 0.9 2.6 0.00 0.00 0.00 89 996.5
20260906083153 80 4 1.7 5.2 0.00 0.00 0.00 89 996.7
20260906082150 80 222 0.9 4.3 0.00 0.00 0.00 89 996.6
20260906081149 80 212 0.9 3.5 0.00 0.00 0.00 89 996.6
20260906080150 80 152 1.7 4.3 0.00 0.00 0.00 89 996.9
20260906075150 80 206 1.7 3.5 0.00 0.00 0.00 89 996.9
20260906074147 80 237 1.7 4.3 0.00 0.00 0.00 89 996.6
20260906073145 81 224 0.9 2.6 0.00 0.00 0.00 89 996.2
20260906072145 81 189 1.7 4.3 0.00 0.00 0.00 89 996.5
20260906071145 81 207 1.7 5.2 0.00 0.00 0.00 89 996.6
20260906070145 81 336 0.9 3.5 0.00 0.00 0.00 89 996.7
20260906065146 81 300 0.9 3.5 0.00 0.00 0.00 89 996.7
20260906064145 81 0 0.9 3.5 0.00 0.00 0.00 89 996.7
20260906063145 81 359 0.9 3.5 0.00 0.00 0.00 89 997.0
20260906062629 81 216 0.9 4.3 0.00 0.00 0.00 89 997.0
20260906061142 81 207 0.9 3.5 0.00 0.00 0.00 90 996.6
20260906060140 81 203 0.9 4.3 0.00 0.00 0.00 91 996.6
20260906055141 81 335 0.9 2.6 0.00 0.00 0.00 92 996.5
20260906054139 81 0 0.9 2.6 0.00 0.00 0.00 92 996.6
20260906053140 81 0 0.0 1.7 0.00 0.00 0.00 92 996.6
20260906052140 81 0 0.9 2.6 0.00 0.00 0.00 92 996.7
20260906051140 81 51 1.7 4.3 0.00 0.00 0.00 93 996.8
20260906050138 81 257 1.7 5.2 0.00 0.00 0.00 93 996.8
20260906045139 81 194 1.7 4.3 0.00 0.00 0.00 93 997.0
20260906044139 81 169 1.7 3.5 0.00 0.00 0.00 93 997.1
20260906043621 81 179 1.7 4.3 0.00 0.00 0.00 93 997.0
20260906042139 81 190 1.7 3.5 0.00 0.00 0.00 93 997.0
20260906041140 81 198 1.7 4.3 0.00 0.00 0.00 92 997.3
20260906040139 81 200 1.7 4.3 0.00 0.00 0.00 92 997.3
20260906035139 81 214 1.7 3.5 0.00 0.00 0.00 92 997.4
20260906034139 81 231 1.7 4.3 0.00 0.00 0.00 92 997.5
20260906033610 81 195 1.7 4.3 0.00 0.00 0.00 91 997.7
20260906032624 81 169 1.7 5.2 0.00 0.00 0.00 91 998.0
20260906031149 81 199 2.6 5.2 0.00 0.00 0.00 91 998.0
20260906030618 81 193 2.6 5.2 0.00 0.00 0.00 90 998.2
20260906025136 81 184 2.6 5.2 0.00 0.00 0.00 90 998.3
20260906024617 82 168 2.6 5.2 0.00 0.00 0.00 90 998.2
20260906023137 82 185 3.5 6.1 0.00 0.00 0.00 89 997.9
20260906022147 82 218 2.6 5.2 0.00 0.00 0.00 87 998.0
20260906021133 82 172 2.6 6.1 0.00 0.00 0.00 87 998.0
20260906020133 82 193 2.6 4.3 0.00 0.00 0.00 86 998.1
20260906015133 82 170 1.7 4.3 0.00 0.00 0.00 86 997.7
20260906014134 82 166 1.7 5.2 0.00 0.00 0.00 86 997.6
20260906013134 82 108 1.7 4.3 0.00 0.00 0.00 86 997.0
20260906012134 82 164 1.7 4.3 0.00 0.00 0.00 85 996.9
20260906011132 82 140 0.9 2.6 0.00 0.00 0.00 85 996.7
20260906010143 82 179 1.7 4.3 0.00 0.00 0.00 85 996.8
20260906005129 82 201 1.7 5.2 0.00 0.00 0.00 84 996.5
20260906004125 82 125 0.9 2.6 0.00 0.00 0.00 84 996.3
20260906003125 82 0 0.9 2.6 0.00 0.00 0.00 83 996.1
20260906002126 83 151 0.9 3.5 0.00 0.00 0.00 83 995.9
20260906001129 83 106 0.9 2.6 0.00 0.00 0.00 82 995.8
20260906000125 83 120 0.9 2.6 0.00 0.00 0.00 82 995.8
20260905235122 83 107 1.7 2.6 0.00 0.00 0.00 81 995.9
20260905234121 84 85 1.7 2.6 0.00 0.00 0.00 80 996.3
20260905233120 84 195 1.7 3.5 0.00 0.00 0.00 79 996.7
20260905232600 84 139 1.7 4.3 0.00 0.00 0.00 79 997.0
20260905231121 84 137 1.7 4.3 0.00 0.00 0.00 78 996.9
20260905230121 84 157 1.7 5.2 0.00 0.00 0.00 78 997.5
20260905225121 85 154 2.6 5.2 0.00 0.00 0.00 77 998.0
20260905224119 85 161 2.6 5.2 0.00 0.00 0.00 76 999.1
20260905223115 85 162 1.7 5.2 0.00 0.00 0.00 76 998.9
20260905222115 85 117 1.7 3.5 0.00 0.00 0.00 75 999.0
20260905221116 86 133 1.7 6.1 0.00 0.00 0.00 75 999.2
20260905220122 86 109 1.7 4.3 0.00 0.00 0.00 74 999.4
20260905215138 86 188 2.6 4.3 0.00 0.00 0.00 74 999.4
20260905214116 87 142 1.7 4.3 0.00 0.00 0.00 73 1000.4
20260905213116 87 166 1.7 4.3 0.00 0.00 0.00 73 1000.3
20260905212113 87 167 1.7 5.2 0.00 0.00 0.00 72 1000.3
20260905211110 87 112 1.7 5.2 0.00 0.00 0.00 71 1000.5
20260905210123 87 170 2.6 5.2 0.00 0.00 0.00 71 1000.3
20260905205111 87 193 2.6 6.1 0.00 0.00 0.00 70 1000.1
20260905204112 88 225 2.6 6.1 0.00 0.00 0.00 72 1000.0
20260905203111 88 220 2.6 6.1 0.00 0.00 0.00 72 999.8
20260905202111 89 182 2.6 4.3 0.00 0.00 0.00 70 1000.4
20260905201109 90 205 1.7 3.5 0.00 0.01 0.00 68 1001.2
20260905195551 91 190 1.7 6.1 0.00 0.01 0.00 68 1002.4
20260905194106 91 193 2.6 5.2 0.00 0.01 0.00 68 1001.8
20260905193106 92 245 1.7 5.2 0.00 0.01 0.00 66 1004.0
20260905192105 92 316 2.6 6.1 0.00 0.01 0.00 64 1011.3
20260905191106 91 268 2.6 7.0 0.00 0.01 0.00 69 1005.3
20260905190106 91 211 2.6 6.1 0.00 0.03 0.00 69 1005.3
20260905185106 90 264 3.5 7.0 0.00 0.04 0.00 70 1008.9
20260905184106 91 204 2.6 5.2 0.00 0.04 0.00 72 1007.0
20260905183106 92 192 1.7 4.3 0.00 0.04 0.00 68 1010.5
20260905182104 91 204 1.7 4.3 0.00 0.12 0.00 69 1009.5
20260905181104 92 219 1.7 4.3 0.00 0.14 0.00 68 1005.4
20260905180108 92 199 1.7 4.3 0.00 0.14 0.00 68 1011.5
20260905175104 91 266 1.7 5.2 0.00 0.14 0.00 68 1012.2
20260905174104 90 298 2.6 4.3 0.00 0.14 0.00 73 1009.8
20260905173104 90 53 2.6 5.2 0.00 0.14 0.00 71 1006.3
20260905172549 90 16 1.7 4.3 0.00 0.14 0.00 73 1010.1
20260905171102 90 31 1.7 5.2 0.00 0.14 0.00 72 1003.9
20260905170114 90 12 2.6 5.2 0.00 0.14 0.00 73 1007.2
20260905165541 90 12 2.6 6.1 0.00 0.14 0.00 74 1009.8
20260905164100 91 274 1.7 6.1 0.00 0.14 0.00 70 1012.7
20260905163100 91 290 1.7 3.5 0.00 0.14 0.00 71 1011.0
20260905162100 91 33 2.6 5.2 0.00 0.14 0.00 72 1012.4
20260905161100 91 347 1.7 6.1 0.00 0.14 0.00 73 1013.4
20260905160109 89 1 1.7 3.5 0.00 0.14 0.00 76 1013.2
20260905155056 87 341 1.7 5.2 0.00 0.14 0.00 79 1012.4
20260905154057 85 17 0.9 2.6 0.00 0.14 0.00 84 1005.4
20260905153057 85 12 1.7 3.5 0.00 0.14 0.00 84 1001.4
20260905152554 86 8 1.7 4.3 0.00 0.14 0.00 81 1001.8
20260905151057 86 270 1.7 3.5 0.00 0.14 0.00 81 1005.4
20260905150110 86 253 1.7 4.3 0.00 0.14 0.00 80 1003.1
20260905145057 87 233 1.7 4.3 0.00 0.14 0.00 78 1005.5
20260905144058 87 284 0.9 4.3 0.00 0.14 0.00 79 1004.0
20260905143055 88 356 1.7 4.3 0.00 0.14 0.00 78 1005.5
20260905142054 88 219 1.7 4.3 0.00 0.14 0.00 77 1009.7
20260905141108 87 325 1.7 4.3 0.00 0.14 0.00 79 1010.0
20260905140107 86 240 0.9 3.5 0.00 0.14 0.00 81 1009.5
20260905135108 86 1 1.7 3.5 0.00 0.14 0.00 83 1008.5
20260905134055 85 32 1.7 3.5 0.00 0.14 0.00 85 1008.0
20260905133108 85 200 0.9 3.5 0.00 0.14 0.00 85 1007.2
20260905132052 84 341 0.9 4.3 0.00 0.14 0.00 88 1004.7
20260905131052 83 226 0.9 2.6 0.00 0.14 0.00 90 1003.4